Location: Flotzheim
(48.8375°N, 10.8136°E)
Time: 03:32:04
(UTC+00:00)

Cosmos 1626 Rocket - Pass Details

Date: 23 January 2021
Orbit: 603 x 631 km, 82.5° (Epoch: 26 February)

Event Time Altitude Azimuth Distance (km) Brightness Sun altitude
Rises 16:58:50 0° 160° (SSE) 2,874 7.0 -9.7°
Reaches altitude 10° 17:01:14 10° 149° (SSE) 1,979 6.0 -10.0°
Maximum altitude 17:05:02 30° 89° (E) 1,134 4.4 -10.6°
Drops below altitude 10° 17:08:53 10° 29° (NNE) 2,008 5.8 -11.2°
Enters shadow 17:10:49 - 20° (NNE) 2,725 6.5 -11.5°
